Location: Tamazert
(32.6352°N, 5.2072°W)
Time: 03:54:46
(UTC+00:00)

Vanguard 1 Rocket - Pass Details

Date: 11 October 2022
Orbit: 650 x 4225 km, 34.3° (Epoch: 05 December)

Event Time Altitude Azimuth Distance (km) Brightness Sun altitude
Rises 00:59:16 0° 286° (WNW) 6,103 - -61.7°
Reaches altitude 10° 01:04:51 10° 276° (W) 4,408 - -61.1°
Maximum altitude 01:12:55 24° 228° (SW) 2,440 - -60.2°
Drops below altitude 10° 01:18:10 10° 174° (S) 2,733 - -59.5°
Sets 01:20:44 0° 159° (SSE) 3,404 - -59.2°
